GEFSSE_con_prob3kmehi_144.txt.gz
EHI
11 10 10 5 0 0 0 0 0 0 0 0 0 0 0 0 0 0 0 0 0 0 0 0 0 0 0 0 0 0 0 0 0 1 3 4 3 2 0 0 0 0 0
14 13 12 7 2 1 1 1 0 0 0 0 0 0 0 0 0 0 0 0 0 0 0 0 0 0 0 0 0 0 0 0 0 1 3 3 3 2 0 0 0 0 0
12 12 12 10 5 4 4 2 1 0 0 0 0 0 0 0 0 0 0 0 0 0 0 0 0 0 0 0 0 0 0 0 0 1 1 1 1 1 0 0 0 0 0
8 9 12 13 10 7 6 4 1 0 0 0 0 0 0 0 0 0 0 0 0 0 0 0 0 0 0 0 1 1 0 0 1 1 0 0 0 0 0 0 0 0 0
11 14 17 16 14 11 8 5 2 0 0 0 0 0 0 0 0 0 0 0 0 0 0 0 0 0 1 1 2 2 1 0 1 1 0 0 0 0 0 0 0 0 0
23 23 22 20 16 13 9 6 2 1 0 0 0 0 0 0 0 0 0 0 0 0 0 0 0 1 2 3 3 2 1 2 3 2 0 0 0 0 0 0 0 0 0
35 31 28 25 19 12 8 5 3 2 1 0 0 0 0 0 0 0 0 0 0 0 0 0 0 1 2 2 2 2 3 5 5 2 0 0 0 0 0 0 0 0 0
49 41 34 30 21 11 7 5 4 3 2 1 0 0 0 0 0 0 0 0 0 0 0 0 0 0 1 1 1 3 7 10 6 1 0 0 0 0 0 0 0 0 0
61 49 34 27 20 11 7 6 4 3 2 1 0 0 0 0 0 0 0 0 0 0 0 0 0 0 0 1 2 4 10 12 6 1 0 0 0 0 0 0 0 0 0
63 47 30 22 16 9 7 5 3 2 2 1 0 0 0 0 0 0 0 0 0 0 0 0 0 0 0 1 2 5 10 11 6 1 0 0 0 0 0 0 0 0 0
61 48 32 24 17 10 8 6 3 1 1 0 0 0 0 0 0 0 0 0 0 0 0 0 0 0 0 1 2 4 7 7 5 2 1 1 1 0 0 0 0 0 0
66 55 42 33 23 17 15 10 4 3 2 1 0 0 0 0 0 1 1 0 0 0 0 0 0 0 0 0 1 2 2 3 3 2 2 2 2 0 0 0 0 0 0
72 63 55 47 35 29 27 17 8 5 3 1 1 0 0 0 1 2 1 0 0 0 0 0 0 0 0 0 0 0 0 0 2 2 2 3 2 1 0 0 0 0 0
75 69 66 62 52 46 40 27 14 8 4 4 5 3 1 1 1 2 2 1 1 0 0 0 0 0 0 0 0 0 0 0 1 2 2 3 3 2 1 0 0 0 0
77 75 76 73 65 61 54 38 24 16 10 9 11 8 4 3 5 6 5 3 2 2 2 1 0 0 0 0 0 0 1 1 2 3 2 2 4 4 2 1 0 0 0
80 79 80 77 70 68 62 47 32 22 17 16 17 14 8 8 13 13 8 4 4 5 5 3 1 0 0 0 0 0 2 2 3 3 2 1 3 4 3 1 0 0 0
82 81 79 76 70 67 63 51 36 25 20 23 25 21 14 15 19 15 7 4 6 8 8 5 2 1 0 0 0 1 3 4 3 2 1 0 1 2 3 2 1 0 0
83 81 77 71 66 63 60 52 38 27 27 32 33 27 21 20 21 16 9 7 8 8 6 4 2 1 1 1 0 1 3 4 3 1 0 1 1 1 1 2 2 1 0
82 80 74 68 63 60 58 51 38 31 35 39 35 30 25 23 21 18 14 12 10 6 3 3 2 2 2 1 0 0 1 3 2 1 1 2 2 1 1 1 2 1 1
80 77 72 68 63 58 55 47 36 33 36 35 31 29 26 22 20 17 15 13 11 6 3 4 4 3 2 2 1 1 1 1 1 1 1 2 3 3 3 3 2 1 0
79 75 72 68 63 59 51 43 38 35 34 30 27 26 23 19 16 14 12 14 14 12 8 6 5 4 2 2 2 1 1 0 1 1 1 1 2 5 7 8 6 2 1
78 75 72 68 64 57 48 41 39 38 34 27 26 25 20 15 13 12 13 16 17 15 12 7 5 4 3 3 3 1 0 0 0 1 1 1 2 6 9 9 9 7 4
73 73 72 70 64 56 46 39 35 34 29 24 25 26 21 15 13 14 16 18 18 15 11 7 5 4 4 3 3 1 0 0 0 0 0 1 2 5 5 5 8 9 8
67 68 69 68 62 55 46 38 32 26 21 19 23 26 22 15 13 15 17 19 19 15 10 7 6 5 4 3 3 2 1 0 0 0 0 0 2 3 2 2 3 6 7
61 62 64 63 57 51 44 39 33 24 18 18 21 23 20 15 12 14 18 22 22 19 14 10 8 6 4 3 4 3 1 0 0 0 0 0 0 1 1 0 1 4 5
58 58 59 58 53 47 42 39 32 25 20 18 18 19 19 15 12 14 19 25 25 23 19 14 10 7 5 5 5 4 2 1 0 0 0 0 0 0 0 0 1 4 5

GEFSSE_con_prob3kmehi_150.txt.gz
EHI
1 7 17 18 12 5 1 0 1 2 2 4 6 4 3 2 1 0 0 0 0 0 0 0 0 0 0 0 0 0 0 0 0 0 0 0 0 0 0 0 0 1 2
10 13 22 24 17 10 4 1 0 1 1 3 3 2 1 1 0 0 0 0 0 0 0 0 0 0 0 0 0 0 0 0 0 0 0 0 0 0 0 0 0 1 2
29 24 26 29 25 16 8 3 0 0 0 1 1 1 0 0 0 0 0 0 0 0 0 0 0 0 0 0 0 0 0 0 0 0 0 0 0 0 0 0 0 1 1
42 31 28 34 31 21 12 5 1 0 0 0 0 0 0 0 0 0 0 0 0 0 0 0 0 0 0 0 0 0 0 0 0 0 0 0 0 0 0 0 0 0 0
41 33 31 37 35 26 16 7 2 1 0 0 0 0 0 0 0 0 0 0 0 0 0 0 0 0 0 0 0 0 0 0 0 0 0 0 0 0 0 0 0 0 0
39 32 32 38 36 28 19 10 4 2 1 0 0 0 0 0 0 0 0 0 0 0 0 0 0 0 0 0 0 0 0 0 0 0 0 0 0 0 0 0 0 0 0
41 34 33 37 36 29 22 14 7 3 2 1 0 0 0 0 0 0 0 0 0 0 0 0 0 0 0 0 0 0 1 0 0 0 0 0 0 0 0 0 0 0 0
44 39 37 38 35 30 24 16 8 3 2 1 0 0 0 0 0 0 0 0 0 0 0 0 0 0 0 0 0 0 0 0 0 0 0 0 0 0 0 0 0 0 0
45 44 40 34 29 25 21 15 9 4 1 0 0 0 0 0 0 0 0 0 0 0 0 0 0 0 0 0 0 1 1 0 0 0 0 0 0 0 0 0 0 0 0
42 43 38 29 22 17 15 12 9 5 2 0 0 0 0 0 0 0 0 0 0 0 0 0 0 1 1 1 1 2 3 1 0 0 0 0 0 0 0 0 0 0 0
42 39 34 27 21 17 13 10 7 4 1 0 0 0 0 0 0 0 0 0 0 0 0 0 0 1 1 1 2 3 2 1 0 0 0 0 0 0 0 0 0 0 0
45 38 30 27 23 18 14 9 5 2 0 0 0 0 0 0 0 0 0 0 0 0 0 0 0 0 0 0 1 2 1 0 0 0 0 0 0 0 0 0 0 0 0
47 39 31 26 22 16 12 9 3 0 0 0 0 0 0 0 0 0 0 0 0 0 0 0 0 0 0 0 0 0 0 0 0 0 0 0 0 0 0 0 0 0 0
49 42 33 26 19 14 11 7 3 0 0 0 0 0 0 0 0 0 0 0 0 0 0 0 0 0 0 0 0 0 0 0 0 0 0 0 1 1 1 0 0 0 0
53 48 38 28 20 15 11 7 3 1 1 0 0 0 0 0 0 0 0 0 0 0 0 0 0 0 0 0 0 0 0 0 0 0 0 0 1 2 2 1 0 0 0
62 58 47 34 27 20 13 8 4 2 1 0 0 0 0 0 0 0 0 0 0 0 0 0 0 0 0 0 0 0 0 0 0 0 0 0 1 3 2 1 0 0 0
71 67 57 45 36 29 18 10 6 3 2 1 0 0 0 0 0 0 0 0 0 0 0 0 0 0 0 0 0 0 0 0 0 0 0 0 1 2 2 1 0 0 0
75 71 63 54 46 35 24 13 7 5 3 2 1 0 0 0 0 0 0 0 0 0 0 0 0 0 0 0 0 0 0 0 0 0 0 0 0 1 1 1 0 0 0
74 71 65 59 52 39 26 15 8 5 6 5 3 1 1 1 1 1 0 0 0 0 0 0 0 0 0 0 0 0 0 0 0 0 0 0 0 0 0 0 0 0 0
70 68 64 60 53 41 28 17 9 6 7 7 6 3 2 3 3 2 1 0 0 0 0 0 0 0 0 0 0 0 0 0 0 0 0 0 0 0 0 0 0 0 0
68 66 61 57 51 41 29 19 12 7 5 4 5 4 3 3 3 3 2 0 0 0 0 0 0 0 0 0 0 0 0 0 0 0 0 0 0 0 0 0 0 0 0
67 65 60 54 47 38 27 17 10 5 2 1 2 2 3 3 2 1 1 0 0 0 0 0 0 0 0 0 0 0 0 0 0 0 0 0 0 0 0 0 0 0 0
64 62 57 50 42 33 23 14 8 5 3 1 1 1 1 2 1 0 0 0 0 0 0 0 0 0 0 0 0 0 0 0 0 0 0 0 0 0 0 0 0 0 0
61 58 51 45 38 30 22 15 9 5 4 3 2 1 0 1 1 0 0 0 0 0 0 0 0 0 0 0 0 0 0 0 0 0 0 0 0 0 0 0 0 0 0
60 56 49 42 34 28 22 15 8 5 4 4 3 2 1 0 0 0 0 0 0 0 0 0 0 0 0 0 0 0 0 0 0 0 0 0 0 0 0 0 0 0 0
58 55 49 41 32 26 22 13 7 4 4 4 4 3 2 1 0 0 0 0 0 0 0 0 0 0 0 0 0 0 0 0 0 0 0 0 0 0 0 0 0 0 0

GEFSSE_con_prob3kmehi_156.txt.gz
EHI
0 1 2 3 4 9 16 19 17 15 14 13 11 7 2 0 0 0 0 0 0 0 0 0 0 0 0 0 0 0 0 0 0 0 0 0 0 0 0 0 0 0 0
2 2 3 4 5 8 12 14 12 9 8 7 6 4 1 0 0 0 0 0 0 0 0 0 0 0 0 0 0 0 0 0 0 0 0 0 0 0 0 0 0 0 0
8 4 4 7 7 6 7 8 6 5 3 2 2 1 0 0 0 0 0 0 0 0 0 0 0 0 0 0 0 0 0 0 0 0 0 0 0 0 0 0 0 0 0
15 8 6 10 10 7 5 4 4 4 3 3 2 1 0 0 0 0 0 0 0 0 0 0 0 0 0 0 0 0 0 0 0 0 0 0 0 0 0 0 0 0 0
19 12 10 14 15 12 7 5 4 4 4 3 2 1 0 0 0 0 0 0 0 0 0 0 0 0 0 0 0 0 0 0 0 0 0 0 0 0 0 0 0 0 0
23 17 15 19 20 16 10 6 4 3 3 2 1 0 0 0 0 0 0 0 0 0 0 0 0 0 0 0 0 0 0 0 0 0 0 0 0 0 0 0 0 0 0
30 24 19 22 23 19 13 8 5 2 1 1 1 0 0 0 0 0 0 0 0 0 0 0 0 0 0 0 0 0 0 0 0 0 0 0 0 0 0 0 0 0 0
35 29 23 22 22 20 16 11 7 3 1 0 1 1 0 0 0 0 0 0 0 0 0 0 0 0 0 0 0 0 0 0 0 0 0 0 0 0 0 0 0 0 0
33 29 24 19 18 17 15 11 7 4 1 0 1 1 0 0 0 0 0 0 0 0 0 0 0 0 0 0 0 0 0 0 0 0 0 0 0 0 0 0 0 0 0
26 23 19 15 13 12 11 9 7 4 2 0 0 1 0 0 0 0 0 0 0 0 0 0 0 0 0 0 0 0 0 0 0 0 0 0 0 0 0 0 0 0 0
26 20 14 12 11 10 8 6 5 4 1 0 0 1 0 0 0 0 0 0 0 0 0 0 0 0 0 0 0 0 0 0 0 0 0 0 0 0 0 0 0 0 0
31 24 15 13 13 12 8 5 3 2 0 0 0 0 0 0 0 0 0 0 0 0 0 0 0 0 0 0 0 0 0 0 0 0 0 0 0 0 0 0 0 0 0
30 25 19 17 17 14 9 5 3 1 0 0 0 0 0 0 0 0 0 0 0 0 0 0 0 0 0 0 0 0 0 0 0 0 0 0 0 0 0 0 0 0 0
26 23 21 20 19 14 9 7 4 1 0 0 0 0 0 0 0 0 0 0 0 0 0 0 0 0 0 0 0 0 0 0 0 0 0 0 0 0 0 0 0 0 0
21 22 24 23 18 13 10 9 5 1 0 0 0 0 0 0 0 0 0 0 0 0 0 0 0 0 0 0 0 0 0 0 0 0 0 0 0 0 0 0 0 0 0
17 20 24 24 18 12 11 9 5 1 0 0 0 0 0 0 0 0 0 0 0 0 0 0 0 0 0 0 0 0 0 0 0 0 0 0 0 0 0 0 0 0 0
16 16 20 22 18 12 10 7 3 1 1 1 0 0 0 0 0 0 0 0 0 0 0 0 0 0 0 0 0 0 0 0 0 0 0 0 0 0 0 0 0 0 0
19 17 18 20 17 12 8 4 2 1 0 0 0 0 0 0 0 0 0 0 0 0 0 0 0 0 0 0 0 0 0 0 0 0 0 0 0 0 0 0 0 0 0
28 24 22 20 15 10 6 3 1 0 0 0 0 0 0 0 0 0 0 0 0 0 0 0 0 0 0 0 0 0 0 0 0 0 0 0 0 0 0 0 0 0 0
37 34 29 23 16 9 5 2 0 0 0 0 0 0 0 0 0 0 0 0 0 0 0 0 0 0 0 0 0 0 0 0 0 0 0 0 0 0 0 0 0 0 0
42 39 36 29 20 11 7 3 1 0 0 0 0 0 0 0 0 0 0 0 0 0 0 0 0 0 0 0 0 0 0 0 0 0 0 0 0 0 0 0 0 0 0
44 40 37 32 24 16 10 6 3 0 0 0 0 0 0 0 0 0 1 0 0 0 0 0 0 0 0 0 0 0 0 0 0 0 0 0 0 0 0 0 0 0 0
43 39 35 32 26 18 12 8 4 1 1 1 1 1 0 0 1 1 1 0 0 0 0 0 0 0 0 0 0 0 0 0 0 0 0 0 0 0 0 0 0 0 0
40 37 34 31 26 19 14 10 6 3 2 2 2 1 0 0 1 1 0 0 0 0 0 0 0 0 0 0 0 0 0 0 0 0 0 0 0 0 0 0 0 0 0
36 33 30 27 23 19 15 12 8 5 3 3 3 2 0 0 1 1 0 0 0 0 0 0 0 0 0 0 0 0 0 0 0 0 0 0 0 0 0 0 0 0 0
32 29 25 23 21 19 16 12 9 6 4 3 3 2 1 0 0 0 0 0 0 0 0 0 0 0 0 0 0 0 0 0 0 0 0 0 0 0 0 0 0 0 0

GEFSSE_con_prob3kmehi_162.txt.gz
EHI
0 1 1 0 0 1 4 8 11 12 11 7 5 3 3 2 1 0 0 0 0 0 0 0 0 0 0 0 0 0 0 0 0 0 0 0 0 0 0 0 1 0 0
1 2 2 1 1 2 5 9 12 13 11 7 3 2 2 2 1 0 0 0 0 0 0 0 0 0 0 0 0 0 0 0 0 0 0 0 0 0 0 0 1 0 0
1 2 3 3 1 1 4 8 11 11 9 4 1 0 1 1 0 0 0 0 0 0 0 0 0 0 0 0 0 0 0 0 0 0 0 0 0 0 0 0 0 0 0
0 1 4 6 4 2 3 6 8 7 4 1 0 0 0 0 0 0 0 0 0 0 0 0 0 0 0 0 0 0 0 0 0 0 0 0 0 0 0 0 0 0 0
0 2 6 9 7 4 3 4 4 3 1 0 0 0 0 0 0 0 0 0 0 0 0 0 1 0 0 0 0 0 0 0 0 0 0 0 0 0 0 0 0 0 0
0 3 7 10 9 6 4 3 3 2 1 0 0 0 0 0 0 0 0 0 0 0 0 0 0 0 0 0 0 0 0 0 0 0 0 0 0 0 0 0 0 0 0
0 3 8 11 8 6 4 4 3 2 1 0 0 0 0 0 0 0 0 0 0 0 0 0 0 0 0 0 0 0 0 0 0 0 0 0 0 0 0 0 0 0 0
0 3 9 10 7 4 4 4 3 1 0 0 0 0 0 0 0 0 0 0 0 0 0 0 0 0 0 0 0 0 0 0 0 0 0 0 0 0 0 0 0 0 0
0 3 6 7 4 3 3 4 3 1 0 0 0 0 0 0 0 0 0 0 0 0 0 0 0 0 0 0 0 0 0 0 0 0 0 0 0 0 0 0 0 0 0
1 2 3 3 2 1 1 2 2 1 1 2 1 0 0 0 1 0 0 0 0 0 0 0 0 0 0 0 0 0 0 0 0 0 0 0 0 0 0 0 0 0 0
5 5 3 1 0 0 0 1 1 1 1 2 2 1 0 0 0 0 0 0 0 0 0 0 0 0 0 0 0 0 0 0 0 0 0 0 0 0 0 0 0 0 0
12 9 6 3 2 1 1 0 0 0 1 1 1 1 0 0 0 0 0 0 0 0 0 0 0 0 0 0 0 0 0 0 0 0 0 0 0 0 0 0 0 0 0
18 15 10 7 7 5 3 1 0 0 0 0 0 0 0 0 0 0 0 0 0 0 0 0 0 0 0 0 0 0 0 0 0 0 0 0 0 0 0 0 0 0 0
24 21 15 13 13 12 7 2 1 0 0 0 0 0 0 0 0 1 1 0 0 0 0 0 0 0 0 0 0 0 0 0 0 0 0 0 0 0 0 0 0 0 0
29 26 21 19 21 19 12 6 3 2 1 0 0 0 0 0 0 1 2 1 0 0 0 0 0 0 0 0 0 0 0 0 0 0 0 0 0 0 0 0 0 0 0
32 31 29 27 27 26 19 10 5 3 2 0 0 0 0 0 0 1 2 2 1 0 0 0 0 0 0 0 0 0 0 0 0 0 0 0 0 0 0 0 0 0 0
35 36 34 31 32 32 25 13 6 3 2 0 0 0 0 0 0 0 1 2 2 1 0 0 0 0 0 0 0 0 0 0 0 0 0 0 0 0 0 0 0 0 0
39 40 37 32 33 34 27 16 8 4 1 0 0 0 0 0 0 0 0 1 2 1 0 0 0 0 0 0 0 0 0 0 0 0 0 0 0 0 0 0 0 0 0
40 43 41 35 34 33 26 17 9 4 1 0 0 0 1 0 0 0 0 1 1 1 0 0 0 0 0 0 0 0 0 0 0 0 0 0 0 0 0 0 0 0 1
43 45 45 42 39 35 28 19 11 6 3 1 0 1 2 1 0 0 0 0 0 0 0 0 0 0 0 0 0 0 0 0 0 0 0 0 0 0 0 0 0 1 2
50 50 50 49 46 41 35 25 16 9 4 2 1 3 4 2 1 0 0 0 0 0 0 0 0 0 0 0 0 0 0 0 0 0 0 0 0 0 0 0 1 3 3
58 54 51 50 48 44 38 29 19 10 5 3 4 7 6 4 2 1 0 0 0 0 0 0 0 0 0 0 0 0 0 0 0 0 0 0 0 0 0 1 2 3 2
58 51 45 45 44 40 36 30 22 13 7 5 8 11 9 5 3 2 0 0 0 0 0 0 0 0 1 1 1 1 0 0 0 0 0 0 0 1 1 1 2 2 2
50 45 41 41 40 38 34 30 24 17 11 8 10 11 9 5 3 1 1 1 1 0 0 0 0 0 1 2 3 2 1 1 0 0 0 0 0 0 0 1 1 2 2
40 37 36 38 39 36 31 28 24 19 13 10 10 9 8 6 4 2 2 2 1 0 0 0 0 0 1 2 3 3 3 2 1 0 0 0 0 0 0 0 0 1 1
35 32 32 36 39 35 30 25 23 19 14 12 11 9 7 7 6 4 2 2 1 0 0 0 0 0 0 1 3 3 3 2 1 0 0 0 0 0 0 0 0 0 0

GEFSSE_con_prob3kmehi_168.txt.gz
EHI
2 1 0 0 1 2 1 0 0 0 0 0 0 0 0 0 0 0 0 0 0 0 0 0 0 0 0 0 0 0 0 0 0 1 1 1 2 3 4 5 4 1 0
2 1 0 0 1 2 2 1 0 0 0 0 0 0 0 0 0 0 0 0 0 0 0 0 0 0 0 0 0 0 0 0 0 1 1 1 1 2 3 3 2 1 0
2 1 0 0 1 2 2 1 0 0 0 0 0 0 0 0 0 0 0 0 0 0 0 0 0 0 0 0 0 0 0 0 0 1 1 0 0 1 1 1 1 0 0
2 1 1 1 2 2 1 0 0 0 0 0 0 0 0 0 0 0 0 0 0 0 0 0 0 0 0 0 0 0 0 0 0 0 0 0 0 0 0 0 0 0 0
5 4 2 2 2 1 0 0 0 0 0 0 0 0 0 0 0 0 0 0 0 0 0 0 0 0 0 0 0 0 0 1 2 1 0 0 0 0 0 0 0 0 0
9 7 4 3 2 1 1 1 1 0 0 0 0 0 0 0 0 0 0 0 0 0 0 0 0 0 0 0 0 1 2 4 4 1 0 0 0 0 0 0 0 0 0
16 11 7 5 4 3 3 2 2 1 0 0 0 0 0 0 0 0 0 0 0 0 0 0 0 0 0 0 0 2 6 9 5 2 1 0 0 0 0 0 0 0 0
22 16 9 8 8 6 4 3 3 1 0 0 0 0 0 0 0 0 0 0 0 0 0 0 0 0 0 0 0 2 8 11 7 2 1 0 0 0 0 0 0 0 0
24 19 11 8 9 7 4 3 3 2 1 0 0 0 0 0 0 0 0 0 0 0 0 0 0 0 0 0 0 2 9 12 6 1 1 0 0 1 0 0 0 0 0
23 19 14 10 9 8 6 4 3 2 1 0 0 0 0 0 1 0 0 0 0 0 0 0 0 0 0 1 2 5 9 9 4 1 1 1 1 1 0 0 0 0 0
21 19 18 15 10 8 7 5 3 2 1 1 1 1 2 1 1 1 1 1 0 0 0 0 0 0 0 1 4 8 9 5 2 2 2 3 3 1 0 0 0 0 0
20 21 23 19 11 8 8 6 4 3 3 1 2 3 4 3 1 2 3 2 0 0 0 0 0 0 0 1 3 5 6 3 2 2 3 5 5 1 0 0 0 0 0
21 24 27 25 15 9 9 6 5 5 4 3 2 3 3 2 1 1 2 1 0 0 0 0 0 1 0 0 1 2 3 2 2 2 3 5 4 1 0 0 0 0 0
25 28 35 36 26 16 12 8 6 8 7 6 5 3 2 1 0 1 2 1 0 0 0 0 0 0 0 0 0 1 1 1 1 2 2 3 2 1 0 0 0 0 0
36 37 44 46 37 26 17 11 10 11 10 10 9 6 3 2 2 3 4 3 1 1 2 1 1 1 1 1 0 0 1 1 1 2 2 1 1 1 2 2 1 0 0
51 51 53 54 47 35 23 16 14 13 12 14 15 12 8 7 7 5 4 3 2 2 2 3 3 3 2 1 0 0 1 2 2 3 3 2 1 1 2 4 3 2 1
64 64 61 59 54 43 30 21 16 14 14 16 19 19 16 13 10 7 4 2 2 3 3 3 4 3 2 1 1 1 1 2 3 4 5 5 3 2 3 5 6 5 4
75 73 67 61 59 52 39 26 20 18 20 20 19 21 20 16 12 7 4 2 2 4 4 3 3 3 3 2 2 2 3 4 4 4 4 6 6 5 4 5 6 6 6
81 80 71 63 62 58 46 34 25 24 27 24 20 21 21 18 12 7 5 4 4 4 3 2 3 4 4 2 2 4 5 5 4 3 3 5 8 9 7 6 6 6 5
84 83 75 66 64 60 51 41 32 29 28 25 23 22 22 19 13 8 7 8 7 4 3 2 4 5 4 2 1 2 4 4 4 4 4 4 6 10 12 11 8 6 5
86 84 79 71 67 63 57 48 41 35 28 23 24 25 24 20 14 9 8 11 10 6 4 4 5 6 4 4 2 0 1 3 4 5 5 5 5 8 12 15 15 11 8
85 84 81 76 71 66 61 54 47 40 31 23 24 28 27 21 16 11 10 10 10 7 5 7 9 7 5 5 4 1 1 2 3 5 6 6 6 7 10 15 20 19 16
82 82 81 78 74 69 63 55 49 44 34 26 26 30 29 23 19 16 14 10 7 5 5 8 10 8 6 5 4 2 0 0 2 4 5 7 9 9 9 11 18 22 22
77 79 81 80 76 70 62 55 50 46 36 28 27 29 28 24 19 18 17 15 10 6 5 6 8 9 8 5 3 1 0 0 2 3 3 7 11 11 8 8 14 20 22
73 74 78 79 75 69 62 54 48 43 35 28 24 25 25 20 16 15 16 18 16 11 8 7 9 11 9 5 3 1 1 1 1 2 2 4 7 8 7 8 13 18 21
71 71 75 76 74 69 61 53 47 40 33 27 22 22 22 17 12 11 13 17 19 14 10 10 12 12 9 5 3 1 1 2 1 1 1 2 3 4 7 10 13 18 22

GEFSSE_con_prob3kmehi_174.txt.gz
EHI
3 4 7 5 1 0 0 0 0 0 0 1 2 2 2 1 0 0 0 0 0 0 0 0 1 2 1 1 1 1 0 0 0 0 0 0 1 3 4 3 2 1 1
5 7 9 7 2 0 0 0 0 0 0 0 1 1 1 0 0 0 0 0 0 0 0 0 1 2 1 1 1 1 0 0 0 1 1 0 1 2 3 2 2 1 1
8 8 9 7 3 1 1 0 0 0 0 0 0 0 0 0 0 0 0 0 0 0 0 0 1 2 3 2 3 2 1 1 1 1 1 0 0 1 1 1 1 0 1
7 5 5 5 3 2 1 0 0 0 0 0 0 0 0 0 0 0 0 0 0 0 0 0 1 2 3 3 3 3 2 2 1 1 1 0 0 0 0 0 0 0 0
6 3 3 4 3 1 1 0 0 0 0 0 0 0 0 0 0 0 0 0 0 0 0 0 0 1 2 3 3 3 2 2 1 0 0 0 0 0 0 0 0 0 0
4 4 6 6 4 2 1 0 0 0 0 0 0 0 0 0 0 0 0 0 0 0 0 0 0 1 1 2 3 2 2 2 1 0 0 0 0 0 0 0 0 0 0
5 5 6 7 6 4 3 2 0 0 0 0 0 0 0 0 0 0 0 0 0 0 0 0 1 1 1 1 1 1 1 1 0 0 0 0 0 0 0 0 0 0 0
8 5 4 4 5 5 5 3 1 0 0 0 0 0 0 0 0 0 0 0 0 0 0 0 1 1 0 0 0 0 1 1 1 0 0 0 0 0 0 0 0 0 0
8 5 2 1 2 4 4 3 2 0 0 0 0 0 0 0 0 0 0 0 0 0 0 0 0 0 0 0 0 1 2 2 1 0 0 0 0 0 0 0 0 0 0
6 4 2 1 1 1 2 1 1 1 0 0 0 0 0 0 0 0 0 0 0 1 1 0 0 0 0 0 0 2 3 2 1 0 0 1 2 1 0 0 0 0 0
6 4 3 2 1 0 0 0 0 1 0 0 0 0 0 0 0 0 0 0 0 1 1 0 0 0 0 0 0 1 2 1 0 0 1 3 4 2 0 0 0 0 0
8 5 3 3 1 0 0 0 0 0 0 0 0 0 0 0 0 0 0 0 0 0 0 0 0 0 0 0 0 0 0 0 0 0 1 4 6 5 2 1 0 0 0
13 7 3 4 3 1 1 1 1 0 0 0 0 0 0 0 0 0 0 0 0 0 0 0 0 0 0 0 0 0 0 0 0 0 1 5 8 8 5 3 1 1 0
21 12 6 6 6 4 3 3 1 1 1 0 0 0 0 0 0 0 0 0 0 0 0 0 0 0 0 0 0 0 0 0 0 0 1 5 8 9 7 4 3 1 1
34 25 15 12 11 9 6 4 3 2 2 1 1 0 0 0 0 0 0 0 0 0 0 0 0 0 0 0 0 0 0 0 0 0 1 4 8 9 7 5 2 1 0
47 41 31 25 21 16 10 6 5 5 4 2 1 1 0 0 0 0 0 0 0 0 0 0 0 0 0 0 0 0 0 0 0 0 0 2 6 9 9 6 3 2 2
57 53 45 38 33 26 17 12 10 9 6 2 1 1 1 0 0 0 0 0 0 0 0 0 0 0 0 0 0 0 0 0 0 0 0 1 3 7 9 7 5 5 5
60 56 49 45 40 31 22 15 12 9 5 2 0 0 1 0 0 0 0 0 0 0 0 0 0 0 0 0 0 0 0 0 0 0 0 0 1 3 5 7 6 6 6
61 57 49 44 41 32 22 14 9 6 4 2 0 1 1 1 0 0 0 0 0 0 0 0 0 0 0 0 0 0 0 0 0 0 0 0 0 0 1 3 5 6 7
63 57 49 44 42 35 25 15 9 5 4 2 1 1 2 1 0 0 0 0 0 0 0 0 0 0 0 0 0 0 0 0 0 0 0 1 1 1 0 0 2 4 5
64 59 51 46 44 40 30 19 12 7 4 3 1 1 2 2 0 0 0 0 0 0 0 0 0 0 0 0 0 0 0 0 0 0 0 1 1 1 1 0 0 1 2
66 62 56 50 46 42 32 21 13 7 4 2 1 1 1 1 0 0 0 0 0 0 0 0 0 0 0 0 0 0 0 0 0 0 0 0 1 1 1 1 1 0 0
67 64 57 51 44 39 32 22 14 8 4 2 1 1 1 0 0 0 0 0 0 0 0 0 0 0 0 0 0 0 0 0 0 0 0 0 0 0 0 1 2 2 1
67 63 56 48 40 36 32 24 15 9 5 3 2 2 1 0 0 0 1 1 0 0 0 0 0 0 0 0 0 0 0 0 0 0 0 0 0 0 0 1 2 2 2
67 63 54 44 36 33 29 21 15 10 6 3 2 2 1 1 0 0 1 2 1 0 0 0 0 0 0 0 0 0 0 0 0 0 0 0 0 0 0 0 1 1 2
67 63 53 42 35 31 26 18 13 11 7 3 3 3 2 2 1 0 1 2 2 1 0 0 0 0 0 0 0 0 0 0 0 0 0 0 0 0 0 0 0 0 1

GEFSSE_con_prob3kmehi_180.txt.gz
EHI
3 3 4 4 4 5 6 6 5 4 3 3 3 3 3 3 3 3 3 3 3 3 3 3 3 3 3 3 3 3 3 3 3 3 3 3 3 3 3 3 3 3 3
3 3 4 4 4 5 6 6 5 4 3 3 3 3 3 3 3 3 3 3 3 3 3 3 3 3 3 3 3 3 3 4 3 3 3 3 3 3 3 3 4 3 3
4 3 4 5 5 5 6 6 6 5 4 3 3 3 3 3 3 3 3 3 3 3 3 3 3 3 3 3 3 3 4 4 4 3 3 3 3 3 3 4 4 4 3
5 4 5 6 5 5 6 6 6 5 4 3 3 3 3 3 3 3 3 3 3 3 3 3 3 3 3 4 3 3 4 4 4 3 3 3 3 3 3 3 3 3 2
5 4 6 8 8 6 5 4 4 4 3 3 3 3 3 3 3 3 3 3 3 3 3 3 3 3 4 4 4 3 4 4 4 3 3 3 3 3 3 1 1 1 2
6 5 7 12 12 7 5 4 3 3 3 3 3 3 3 3 3 3 3 4 3 3 3 3 3 3 3 4 3 3 3 4 3 3 3 3 3 3 3 1 1 2 2
6 6 9 13 13 9 7 6 4 3 3 3 3 3 3 3 3 3 4 4 4 3 3 3 3 3 3 3 3 3 3 3 3 3 3 3 3 3 3 2 2 2 2
6 6 7 10 9 8 8 7 5 3 3 3 3 3 3 3 3 3 3 4 4 4 3 3 3 3 3 3 3 3 3 3 3 3 3 3 3 3 3 3 2 2 2
4 4 5 5 5 5 6 7 5 4 3 3 3 4 4 4 3 3 3 3 4 3 3 3 3 3 3 3 3 3 3 3 3 3 3 3 3 3 3 3 3 3 3
3 3 3 3 3 3 4 6 5 4 4 4 4 5 5 4 4 3 3 3 3 3 3 3 3 3 3 3 3 3 3 3 3 3 3 3 3 3 3 3 3 4 4
3 3 3 3 3 3 4 5 4 4 5 4 4 5 4 4 3 3 4 3 3 3 3 3 3 3 3 3 3 3 3 3 3 3 3 3 3 3 3 3 3 3 4
3 3 4 4 3 3 3 4 4 4 4 4 4 4 3 3 3 4 4 4 3 3 3 3 3 3 3 3 3 3 3 3 3 3 3 3 3 3 3 3 3 3 3
3 4 4 4 4 3 3 3 3 4 3 3 3 3 3 3 3 3 4 3 3 3 3 3 3 3 3 3 3 3 3 3 3 3 3 3 3 3 3 3 3 3 3
4 4 4 4 3 2 2 3 3 3 3 3 3 3 3 3 3 3 3 3 3 3 3 3 3 3 3 3 3 3 3 3 3 3 3 3 3 3 3 3 4 3 3
5 5 3 2 1 1 1 1 2 2 3 3 3 3 3 3 3 3 3 3 3 3 3 3 3 3 3 3 3 3 3 3 3 3 3 3 3 4 3 4 5 4 4
5 4 3 1 0 0 0 0 1 1 1 3 3 3 3 3 3 3 3 3 3 3 3 3 3 3 3 3 3 3 3 3 3 3 3 3 4 4 4 5 5 5 5
4 4 4 3 2 1 0 0 1 1 1 3 3 3 3 3 3 3 3 3 3 3 3 3 3 3 3 3 3 3 3 3 3 3 3 3 3 4 5 6 6 6 6
5 5 6 6 5 3 2 2 3 3 3 3 3 3 3 3 3 3 3 3 3 3 3 3 3 3 3 3 3 3 3 3 3 3 3 3 3 3 4 5 7 6 6
11 9 9 9 7 6 5 5 6 4 3 2 3 3 3 3 3 3 3 3 3 3 3 3 3 3 3 3 3 3 3 3 3 3 3 3 3 3 3 4 5 5 4
20 18 16 12 9 8 7 7 7 5 2 1 1 2 2 2 3 3 3 2 2 3 3 3 3 2 3 3 3 3 3 2 2 2 3 3 3 3 3 3 3 3 3
30 29 26 20 15 12 10 9 8 5 2 1 0 1 1 1 1 2 1 1 1 1 2 3 3 3 3 3 3 2 1 1 1 1 1 2 2 2 2 3 3 3 3
35 35 34 28 20 14 11 10 8 5 4 3 2 1 1 0 1 1 0 0 0 0 1 1 2 2 2 2 2 1 0 0 0 0 0 1 1 1 1 1 2 3 2
36 35 34 30 23 15 11 9 7 6 6 5 4 3 2 2 2 1 1 1 0 0 0 0 1 1 1 1 1 0 0 0 0 0 0 0 0 0 0 0 1 2 2
38 34 29 25 21 15 12 10 7 6 6 6 5 4 3 3 3 3 2 2 1 1 1 1 1 0 0 0 0 0 0 0 0 0 0 0 0 0 0 0 0 1 2
39 33 25 20 18 16 14 11 8 7 6 5 4 3 3 3 3 3 3 3 3 2 2 2 2 1 0 0 0 0 0 0 0 0 0 0 0 0 0 0 0 1 2
35 30 24 19 17 17 15 12 9 7 6 4 3 3 3 3 3 3 3 3 3 3 3 3 3 2 1 0 0 0 0 0 0 0 0 0 0 0 0 0 0 0 1

GEFSSE_con_prob3kmehi_186.txt.gz
EHI
0 1 2 3 3 3 2 1 0 0 0 0 0 0 0 0 0 0 0 0 0 0 0 0 0 0 0 0 0 0 0 0 0 0 0 0 0 0 0 0 0 0 0
0 1 2 3 3 3 2 1 0 0 0 0 0 0 0 0 0 0 0 0 0 0 0 0 0 0 0 0 0 0 0 0 0 0 0 0 0 0 0 0 0 0 0
0 0 1 3 3 3 2 1 0 0 0 0 0 0 0 0 0 0 0 0 0 0 0 0 0 0 0 0 0 0 0 0 0 0 0 0 0 0 0 1 1 0 0
0 0 1 2 2 2 2 1 0 0 0 0 0 0 0 0 0 0 0 0 0 0 0 0 0 0 0 0 0 0 0 0 0 0 0 0 0 0 0 0 1 1 1
0 0 0 1 1 1 1 0 0 0 0 0 0 0 0 0 0 0 0 0 0 0 0 0 0 0 0 0 0 0 0 0 0 0 0 0 0 0 0 0 0 0 0
0 0 0 0 0 0 0 0 0 0 0 0 0 0 0 0 0 0 0 0 0 0 0 0 0 0 0 0 0 0 0 0 0 0 0 0 0 0 0 0 0 0 0
0 1 1 1 0 0 0 0 0 0 0 0 0 0 0 0 0 0 0 0 0 0 0 0 0 0 0 0 0 0 0 0 0 0 0 0 0 0 0 0 0 0 0
0 1 1 1 0 0 0 0 0 0 0 0 0 0 0 1 1 1 0 0 0 0 0 0 0 0 0 0 0 0 0 0 0 0 0 0 0 0 0 0 0 0 0
0 0 0 0 0 0 0 0 0 0 0 0 0 1 1 1 2 1 0 0 0 0 0 0 0 0 0 0 0 0 0 0 0 0 0 0 0 0 0 0 0 0 0
0 0 0 0 0 0 0 0 0 0 0 0 0 0 0 1 1 0 0 0 0 0 0 0 0 0 0 0 0 0 0 0 0 0 0 0 0 0 0 0 0 0 0
0 0 0 0 0 0 0 0 0 0 0 0 0 0 0 0 0 0 0 0 0 0 0 1 0 0 0 0 0 0 0 0 0 0 0 0 0 0 0 0 0 0 0
1 1 1 1 1 0 0 0 0 0 0 0 0 0 0 0 0 0 0 0 0 0 0 0 0 0 0 0 0 0 0 0 0 0 0 0 0 0 0 0 0 0 0
3 2 1 1 1 1 1 1 1 1 1 1 0 0 0 0 0 0 0 0 0 0 0 0 0 0 0 0 0 0 0 0 0 0 0 0 0 0 0 0 0 0 0
4 3 1 1 1 1 2 2 2 2 2 1 0 0 0 0 0 0 0 0 0 0 0 0 0 0 0 0 0 0 0 0 0 0 0 0 0 0 0 0 0 0 0
4 3 2 1 2 3 4 3 2 1 1 1 0 0 0 0 0 0 0 0 0 0 0 0 0 0 0 0 0 0 0 0 0 0 0 0 0 0 0 0 0 0 1
8 7 5 5 5 6 5 3 2 1 0 0 0 0 0 0 0 0 0 0 0 0 0 0 0 0 0 0 0 0 0 0 0 0 0 0 0 0 0 0 0 0 1
12 11 10 8 8 8 7 6 4 2 1 0 0 0 0 0 0 0 0 0 0 0 0 0 0 0 0 0 0 0 0 0 0 0 0 0 0 1 1 1 0 0 1
12 15 15 12 12 12 12 10 8 5 2 1 1 0 0 0 0 0 0 0 0 0 0 0 0 0 0 1 1 1 1 0 0 0 0 0 0 1 2 2 1 1 0
13 18 20 18 18 17 16 14 11 7 4 2 2 1 0 0 0 0 0 0 0 0 0 0 0 1 1 2 2 2 1 0 0 0 0 0 0 0 1 3 3 1 1
21 23 24 24 24 23 20 16 12 8 4 3 2 1 0 0 0 1 1 1 0 0 0 0 0 1 2 2 2 1 1 0 0 0 0 0 0 0 0 1 2 1 0
29 29 30 30 30 29 26 19 14 9 5 3 2 1 1 1 1 2 3 3 2 1 0 0 0 1 1 1 1 0 0 0 0 0 0 0 0 0 0 0 0 0 0
35 35 35 34 32 31 30 23 16 10 7 6 4 2 2 3 3 3 3 3 4 3 1 0 0 0 0 0 0 1 1 0 0 0 0 0 0 0 0 0 0 0 0
38 38 36 36 34 31 28 24 18 14 11 8 6 4 3 4 5 5 3 2 2 2 2 0 0 1 1 0 1 2 2 2 2 1 0 0 0 1 1 1 1 1 1
35 35 36 38 36 32 26 21 19 17 13 9 5 4 3 4 5 6 4 2 2 2 1 1 1 2 2 1 2 3 3 4 3 1 0 0 1 1 1 1 2 2 2
30 30 34 38 37 32 27 22 20 19 15 9 5 4 5 4 4 5 6 6 5 4 3 2 3 3 3 3 4 4 4 4 3 2 0 0 1 1 1 0 1 2 2
26 27 30 35 35 33 28 24 22 21 16 11 6 6 6 5 4 4 6 9 8 6 4 3 3 4 4 5 5 5 4 4 3 1 0 0 1 1 1 0 1 2 2

GEFSSE_con_prob3kmehi_192.txt.gz
EHI
4 2 0 0 0 0 0 0 0 0 0 0 0 0 0 0 0 0 0 0 0 0 0 0 0 0 0 0 0 1 3 4 3 2 1 0 0 0 0 0 0 0 0
3 1 0 0 0 0 0 0 0 0 0 0 0 0 0 0 0 0 0 0 0 0 0 0 0 0 0 0 1 2 3 2 1 1 0 0 0 0 0 0 0 0 0
3 2 0 0 0 0 0 0 0 0 0 0 0 0 0 0 0 0 0 0 0 0 0 0 0 0 0 0 1 1 1 1 0 0 0 0 0 0 0 0 0 0 0
9 5 1 0 0 0 0 0 0 0 0 0 0 0 0 0 0 0 0 0 0 0 0 0 0 0 0 0 0 0 0 0 0 0 0 0 0 0 0 0 0 0 0
14 9 2 0 0 0 0 0 0 0 0 0 0 0 0 0 0 0 0 0 0 0 0 0 0 0 0 0 0 0 0 0 0 0 0 0 0 0 0 1 0 0 0
14 9 2 0 0 0 0 0 0 0 0 0 0 0 0 0 0 0 0 0 0 0 0 0 0 0 0 0 0 0 0 0 0 0 0 0 0 0 0 0 0 0 0
12 7 2 0 0 0 0 0 0 0 0 0 0 0 0 0 0 0 0 0 0 0 0 0 0 0 0 0 0 0 1 1 1 0 1 1 1 0 0 0 0 0 0
10 7 3 2 2 1 0 0 0 0 0 0 0 0 0 0 0 0 0 0 0 0 0 0 0 0 0 0 0 0 2 3 2 1 2 2 1 0 0 0 0 0 0
7 7 6 6 5 4 2 1 0 0 0 0 0 0 0 0 0 0 0 0 0 0 0 0 0 0 0 0 0 0 2 4 2 1 2 2 1 0 0 0 0 0 0
6 6 9 8 6 5 5 3 1 1 0 0 0 0 0 0 0 0 0 0 0 0 0 0 0 0 0 1 1 1 2 2 1 0 1 2 2 1 0 0 0 0 0
5 7 8 8 5 5 6 6 4 2 1 0 1 3 2 1 0 0 1 1 1 0 0 0 0 0 0 2 3 3 2 1 0 0 1 2 3 1 0 0 0 0 0
6 6 5 5 5 6 8 9 6 4 3 1 2 4 4 2 0 1 2 2 1 0 0 1 1 1 0 2 5 5 3 1 1 1 2 4 4 2 1 0 0 0 0
6 6 5 5 9 12 13 9 5 3 3 1 1 2 2 1 0 1 2 2 2 1 0 1 2 1 1 2 4 3 2 1 0 1 3 6 6 3 1 0 0 0 0
7 7 8 11 14 17 16 10 4 2 2 2 2 2 1 1 0 0 1 1 2 1 0 1 1 1 1 2 2 1 1 0 0 1 3 7 7 4 2 1 1 0 0
10 11 13 14 14 15 15 14 9 5 3 3 4 3 2 1 1 1 1 1 1 1 0 0 1 1 1 1 1 0 0 0 0 1 4 8 9 7 5 4 3 1 1
16 17 16 13 13 13 13 14 13 9 5 5 4 3 1 1 2 2 1 1 0 0 0 0 0 1 1 1 1 2 2 1 1 1 3 7 11 10 9 8 6 4 3
27 26 18 13 15 18 16 14 11 8 7 7 6 4 1 2 3 3 2 1 1 1 2 2 1 1 2 4 5 4 5 4 3 3 5 8 10 10 9 8 7 5 4
39 36 25 20 24 25 21 16 10 7 9 10 8 5 4 4 5 4 3 2 3 4 5 5 3 2 3 6 7 6 7 7 6 5 7 11 12 12 10 9 8 7 5
48 43 34 30 32 31 26 20 13 11 11 10 8 6 6 7 7 6 5 5 5 5 5 4 4 3 4 5 5 5 6 8 7 6 8 12 15 16 13 10 10 9 7
54 49 40 36 36 34 29 24 18 13 12 10 9 8 7 7 8 9 9 9 6 4 3 3 4 5 5 5 4 3 3 5 6 7 6 7 11 15 13 13 14 11 10
61 57 50 44 40 37 33 29 24 17 14 14 13 13 12 11 11 11 10 10 7 4 3 3 4 5 6 6 4 2 1 2 5 7 5 3 4 8 12 15 18 17 14
69 66 60 54 47 41 37 33 27 21 18 18 18 20 20 19 16 12 11 11 8 6 4 4 5 5 4 4 3 1 0 1 3 5 5 3 3 5 10 15 19 20 18
71 69 65 61 53 44 39 33 27 23 21 21 22 25 26 24 20 16 15 15 12 8 6 5 5 5 4 3 2 1 1 1 1 2 3 5 5 6 7 11 16 19 19
66 68 71 67 58 48 40 32 27 25 23 23 24 25 27 26 22 20 19 18 16 12 8 7 6 6 4 3 3 3 3 3 2 2 2 3 5 7 7 8 11 14 16
61 67 72 70 63 53 44 36 31 26 23 22 22 23 25 26 25 22 20 19 17 13 11 9 8 6 5 5 5 4 4 5 4 3 1 1 2 5 9 9 8 9 11
59 64 68 68 64 57 47 40 34 27 20 18 19 21 24 27 27 23 20 19 17 14 12 11 9 7 6 6 5 4 4 5 4 3 2 1 1 3 8 11 10 9 10

GEFSSE_con_prob3kmehi_198.txt.gz
EHI
3 5 8 7 5 3 3 3 3 3 3 3 3 4 5 6 6 5 4 3 3 3 3 3 3 3 3 3 3 3 3 3 3 3 3 3 3 3 3 3 3 3 3
3 4 6 6 4 3 3 3 3 3 3 3 3 3 4 4 5 4 3 3 3 3 3 3 3 3 3 3 3 3 3 3 3 3 3 3 3 3 3 3 3 3 3
3 4 4 4 3 3 3 3 3 3 3 3 3 3 3 3 4 3 3 3 3 3 3 3 3 3 3 3 3 3 3 3 3 3 3 3 3 3 3 3 3 3 3
3 3 3 3 3 3 3 3 3 3 3 3 3 3 3 3 3 3 3 3 3 3 3 3 3 3 3 3 3 3 3 3 3 3 3 3 3 3 3 3 3 3 3
3 3 3 4 3 3 3 3 3 3 3 3 3 3 3 3 3 3 3 3 3 3 3 3 3 3 3 3 3 3 3 3 3 2 2 3 3 3 3 3 3 3 3
3 3 4 4 4 3 3 3 3 3 3 3 3 3 3 3 3 3 3 3 3 3 3 3 3 3 3 3 3 3 3 3 2 2 2 3 3 4 3 3 3 3 3
3 3 4 6 5 4 3 3 3 3 3 3 3 3 3 3 3 3 3 3 3 3 3 3 3 3 3 3 3 3 3 3 2 2 3 3 4 4 4 3 3 3 3
4 4 5 7 7 5 4 4 3 3 3 3 3 3 3 3 3 3 3 4 4 3 3 3 3 3 3 3 3 3 3 3 3 3 3 3 4 4 4 4 3 3 3
5 5 6 6 6 6 5 4 3 3 3 3 3 3 3 3 3 3 4 4 4 4 3 3 3 3 3 3 3 3 4 3 3 3 3 3 4 4 4 5 4 3 3
5 6 6 5 4 4 4 4 3 3 3 3 3 3 3 3 3 3 3 4 4 3 3 3 3 3 3 3 3 4 4 4 3 3 4 4 5 5 5 6 5 4 3
5 5 5 4 4 3 3 3 3 3 3 3 3 3 3 3 3 3 3 3 3 3 3 3 4 4 3 3 3 3 4 4 4 4 5 5 5 6 6 6 5 4 3
6 6 6 6 5 4 3 3 3 3 3 3 3 3 3 3 3 3 3 3 3 3 3 4 4 4 3 2 2 3 3 4 4 4 4 6 8 8 7 5 4 3 3
9 10 10 8 6 5 4 4 3 3 3 3 3 3 3 3 3 3 3 3 3 3 3 3 4 3 2 1 1 2 3 3 4 3 4 7 11 11 9 6 4 3 3
12 13 13 11 8 7 6 5 4 3 3 3 3 3 3 3 3 3 3 3 3 3 3 3 3 2 1 0 1 2 3 3 3 3 4 9 13 15 13 10 7 5 4
16 15 14 13 12 10 8 6 5 4 3 3 3 3 3 3 3 3 3 3 3 3 3 3 3 2 1 1 1 3 3 3 3 3 4 8 13 16 16 15 12 10 8
18 17 16 15 14 13 9 6 5 4 3 3 3 3 3 3 3 3 3 3 3 3 3 3 3 1 1 2 3 3 3 3 3 3 4 6 10 13 14 15 15 14 13
18 17 17 16 14 13 9 7 5 4 3 3 3 3 3 3 3 3 3 3 3 3 3 3 2 1 2 3 3 3 3 3 3 3 3 4 6 9 11 13 15 16 15
18 16 14 13 12 11 10 7 5 4 4 3 3 3 3 3 3 3 3 3 3 3 3 3 2 2 3 3 3 3 3 3 3 3 3 3 4 5 8 11 15 16 15
22 16 12 12 12 12 11 8 5 4 5 4 3 3 4 4 3 3 3 3 3 3 3 2 1 2 2 3 3 3 3 3 3 3 3 3 3 4 5 7 11 13 13
27 20 14 14 14 13 12 9 7 6 6 5 4 4 5 5 5 4 4 3 3 3 3 1 0 1 1 1 2 1 1 2 3 3 3 3 3 3 3 4 6 8 9
33 27 21 20 20 17 15 12 9 7 7 7 6 5 5 6 7 6 5 4 3 3 2 1 0 0 0 1 1 0 0 1 1 2 2 2 1 1 2 2 3 4 5
42 37 32 28 26 23 19 14 11 10 9 9 8 6 5 6 7 7 6 5 4 3 3 2 1 1 1 1 1 1 0 0 0 1 1 1 0 0 1 1 1 1 1
50 46 40 33 29 26 21 16 13 11 11 11 9 7 5 5 6 6 6 6 5 5 4 2 1 2 2 2 2 1 0 0 0 0 0 0 0 0 0 0 0 0 0
50 46 40 33 28 25 22 19 15 11 10 10 9 7 6 6 6 6 6 6 6 6 6 4 3 3 3 3 3 2 1 1 0 1 1 0 0 0 0 0 0 0 0
46 44 39 34 29 25 23 21 18 14 12 11 10 8 7 7 7 7 7 7 7 7 7 6 4 4 3 3 3 3 3 2 2 2 2 1 0 0 0 0 0 0 0
47 44 40 37 32 27 25 24 21 19 16 14 12 9 9 9 7 7 8 9 8 7 7 6 6 5 4 3 3 3 3 3 3 3 2 1 0 0 0 0 0 0 0

GEFSSE_con_prob3kmehi_204.txt.gz
EHI
0 0 0 0 0 0 0 1 1 1 0 1 0 0 0 0 0 0 0 0 0 0 0 0 0 0 0 0 0 0 0 0 0 0 0 0 0 0 0 0 0 1 1
0 0 0 0 0 0 0 0 0 0 0 1 0 0 0 0 0 0 0 0 0 0 0 0 0 0 0 0 0 0 0 0 0 0 0 0 0 0 0 0 0 0 1
0 0 0 0 0 0 0 0 0 0 0 0 0 0 0 0 0 0 0 0 0 0 0 0 0 0 0 0 0 0 0 0 0 0 0 0 0 0 0 0 0 0 0
0 0 0 1 2 1 0 0 0 0 0 0 0 0 0 0 0 0 0 0 0 0 0 0 0 0 0 0 0 0 0 0 0 0 0 0 0 0 0 0 0 0 0
0 0 1 2 3 2 0 0 0 0 0 0 0 0 0 0 0 0 0 0 0 0 0 0 0 0 0 0 0 0 0 0 0 0 0 0 0 0 0 0 0 0 0
0 0 1 2 3 2 0 0 0 0 0 0 0 0 0 0 0 0 0 0 0 0 0 0 0 0 0 0 0 0 0 0 0 0 0 0 0 0 0 0 0 0 0
0 0 1 2 2 1 0 0 0 0 0 0 0 0 0 0 0 0 0 0 0 0 0 0 0 0 0 0 0 0 0 0 0 0 0 0 0 0 0 0 0 0 0
0 0 0 1 1 1 0 0 0 0 0 0 0 0 0 0 0 0 0 0 0 0 0 0 0 0 0 0 0 0 0 0 0 0 0 0 0 0 0 0 0 0 0
0 0 0 0 0 0 0 0 0 0 0 0 0 0 0 0 0 0 0 0 0 1 1 0 0 0 0 0 0 0 0 0 0 0 0 0 0 0 0 0 0 0 0
0 0 0 0 0 0 0 0 0 0 0 0 0 0 0 0 0 0 0 0 1 2 2 1 0 0 0 0 0 0 0 0 0 0 0 0 0 0 0 0 0 0 0
0 0 0 0 0 0 0 0 0 0 0 0 0 0 0 0 0 0 0 0 1 2 2 1 0 0 0 0 0 0 0 0 0 0 0 0 0 0 0 0 0 0 0
1 1 0 0 0 0 0 0 1 1 0 0 0 0 0 0 0 0 0 0 1 1 1 0 0 0 0 0 0 0 0 0 0 0 0 1 1 0 0 0 1 1 0
2 2 1 0 0 0 0 1 1 0 0 0 0 0 0 0 0 0 0 0 0 0 0 0 0 0 0 0 0 0 0 0 0 0 0 1 2 1 1 2 3 2 1
4 3 1 0 0 0 0 0 0 0 0 0 0 0 0 0 0 0 0 0 0 0 0 0 0 0 0 0 0 0 0 0 0 0 0 1 2 2 3 4 5 4 2
4 3 1 0 0 0 0 0 0 0 0 0 0 0 0 0 0 0 0 0 0 0 0 0 0 0 0 0 0 0 0 0 0 0 0 0 1 2 4 5 6 5 3
3 2 1 0 0 0 0 0 0 0 0 0 0 0 0 0 0 0 0 0 0 0 0 0 0 0 0 0 0 0 0 0 0 0 0 0 0 1 2 4 6 6 4
3 2 0 0 0 0 0 0 0 0 0 0 0 0 0 0 0 0 0 0 0 0 0 0 0 0 0 0 0 0 0 0 0 0 0 0 0 0 1 2 4 5 6
3 2 1 1 1 0 0 0 0 0 0 0 0 0 0 0 0 0 0 0 0 0 0 0 0 0 0 0 0 0 0 0 0 0 0 0 0 0 0 0 2 3 4
5 4 3 2 2 1 0 0 0 0 0 0 0 0 0 0 0 0 0 0 0 0 0 0 0 0 0 0 0 0 0 0 0 0 0 0 0 0 0 0 0 1 1
5 4 4 5 4 2 1 1 1 1 1 0 0 0 0 0 0 0 0 0 0 0 0 0 0 0 0 0 0 0 0 0 0 0 0 0 0 0 0 0 0 0 0
4 4 4 7 7 5 4 4 3 3 2 0 0 0 0 0 0 0 0 0 0 0 0 0 0 0 0 0 0 0 0 0 0 0 0 0 0 0 0 0 0 0 0
6 6 7 8 8 7 6 6 5 4 2 0 0 0 0 0 0 0 0 0 0 0 0 1 1 1 0 0 0 0 0 0 0 0 0 0 0 0 0 0 0 0 0
11 12 12 11 8 7 7 7 6 4 2 1 0 0 0 0 0 0 0 0 0 0 1 1 2 2 1 0 0 0 0 0 0 0 0 0 0 0 0 0 0 0 0
19 18 17 13 9 7 7 6 5 4 3 1 0 0 0 0 0 0 0 0 0 1 2 2 2 3 3 1 0 0 0 0 0 0 0 0 0 0 0 0 0 0 0
25 23 19 13 9 7 6 5 4 4 3 2 1 0 0 0 0 0 0 1 1 2 4 4 4 3 3 2 1 0 0 0 0 0 0 0 0 0 0 0 0 0 0
26 24 19 14 9 7 6 5 5 5 3 2 2 1 0 0 0 0 1 2 2 3 5 6 5 4 3 2 1 0 0 0 0 0 0 0 0 0 0 0 0 0 0

GEFSSE_con_prob3kmehi_210.txt.gz
EHI
0 0 0 0 0 0 0 0 0 0 0 0 0 0 0 0 0 0 0 0 0 1 2 2 1 0 0 0 0 0 0 0 0 0 1 2 3 2 2 1 0 0 0
0 0 0 0 0 0 0 0 0 0 0 0 0 0 0 0 0 0 0 0 1 2 2 1 0 0 0 0 0 0 0 0 0 0 0 1 2 1 1 0 0 0 0
0 0 0 0 0 0 0 0 0 0 0 0 0 0 0 0 0 0 0 0 1 1 1 0 0 0 0 0 0 0 0 0 0 0 0 0 0 0 0 0 0 0 0
0 0 0 0 0 0 0 0 0 0 0 0 0 0 0 0 0 0 0 0 0 0 0 0 0 0 0 0 0 0 0 0 0 0 0 0 0 0 0 0 0 0 0
0 0 0 0 0 0 0 0 0 0 0 0 0 0 0 0 0 0 0 0 0 0 0 0 0 0 0 0 0 0 0 0 0 0 0 0 0 0 0 0 0 0 0
0 0 0 0 0 0 0 0 0 0 0 0 0 0 0 0 0 0 0 0 0 0 0 0 0 0 0 0 0 0 0 0 0 0 0 0 0 0 0 0 0 0 0
0 0 0 0 0 0 0 0 0 0 0 0 0 0 0 0 0 0 0 0 0 0 0 0 0 0 0 0 0 0 0 0 0 0 0 0 0 0 0 0 0 0 0
0 0 0 0 0 0 0 0 0 0 0 0 0 0 0 0 0 0 0 0 0 0 1 0 0 0 0 0 0 0 0 0 0 0 0 0 0 0 0 0 0 0 0
0 0 0 0 0 0 0 0 0 0 0 0 0 0 0 0 0 0 0 0 0 0 0 0 0 0 0 0 0 0 0 0 0 0 0 0 0 0 0 0 0 0 0
0 0 0 0 0 0 0 0 0 0 0 0 0 0 0 0 0 0 0 0 0 0 0 0 0 0 0 0 0 0 0 0 0 0 0 0 0 0 0 0 0 0 0
1 0 0 0 0 0 0 0 0 0 0 0 0 0 0 0 0 0 0 0 0 0 0 0 0 0 0 0 0 0 0 0 0 0 0 0 0 0 0 0 0 0 0
2 1 0 0 1 1 0 0 0 0 0 0 0 0 0 0 0 0 0 0 0 0 0 0 0 0 0 0 0 0 0 0 0 0 0 0 0 0 0 0 0 0 0
3 2 1 0 1 2 1 0 1 1 1 0 0 0 0 0 0 0 0 0 0 0 0 0 0 0 0 0 0 0 0 0 0 0 0 1 2 1 0 0 0 0 0
6 4 2 1 2 3 2 1 1 2 1 0 1 0 0 0 0 0 0 0 0 0 0 0 0 0 0 0 0 0 0 0 0 0 1 2 3 2 1 0 0 1 1
6 4 2 2 3 4 4 3 2 2 1 0 0 0 0 0 0 0 0 0 0 0 0 0 0 0 0 0 0 0 0 0 0 0 1 2 3 2 1 0 0 1 2
5 3 2 3 5 6 6 4 3 2 2 1 0 0 0 0 0 0 0 0 0 0 1 1 0 0 0 0 0 0 0 0 0 0 0 1 2 1 0 0 0 1 1
5 3 2 3 5 8 8 5 3 2 3 2 1 0 0 0 0 0 0 0 0 1 1 1 1 1 1 1 0 0 0 0 0 0 0 0 0 0 0 0 0 0 0
6 5 3 3 5 9 10 7 3 2 4 3 1 0 0 0 1 1 0 0 1 2 2 1 2 2 2 1 1 0 0 0 0 0 0 0 0 1 1 1 1 0 0
5 4 4 5 8 12 13 9 4 3 4 3 2 1 1 1 2 1 1 1 1 2 2 2 3 3 2 1 1 1 0 0 0 0 1 1 1 2 2 2 1 0 0
5 6 8 10 14 16 15 11 6 4 4 4 3 2 2 3 3 2 2 2 3 3 3 3 3 3 3 2 1 1 0 0 0 0 1 2 2 2 2 1 0 0 0
9 11 13 16 18 17 14 10 7 4 4 4 3 3 3 3 3 3 4 5 4 3 3 3 3 3 3 3 2 1 0 0 0 0 1 1 1 1 1 0 0 0 0
13 15 18 21 21 18 13 10 7 5 5 4 4 4 4 4 5 6 7 7 5 4 3 3 3 3 3 3 3 2 1 1 1 0 0 1 1 1 0 0 1 1 2
14 16 19 23 25 20 15 12 11 9 8 8 7 6 6 7 7 9 10 9 7 5 4 3 3 3 3 3 3 3 2 2 1 0 0 1 2 2 1 1 2 4 4
14 17 21 27 27 23 18 16 15 14 12 10 8 8 8 9 9 11 12 11 9 7 5 4 3 3 3 3 3 3 3 3 1 0 0 1 1 2 2 1 2 3 3
14 17 24 29 30 26 22 20 19 18 15 11 9 9 8 7 8 10 12 13 11 9 6 4 3 4 4 4 4 4 5 4 3 1 0 1 1 2 2 1 1 2 2
13 17 23 30 32 29 25 22 21 20 16 13 10 10 7 5 5 8 11 13 13 11 7 4 4 5 5 5 5 5 5 6 5 2 1 2 2 1 1 1 1 2 3

GEFSSE_con_prob3kmehi_216.txt.gz
EHI
0 0 0 0 0 0 0 0 0 0 0 0 0 0 0 0 0 0 0 0 1 2 2 1 0 0 0 0 0 0 0 0 1 0 1 2 2 1 0 0 0 0 0
1 0 0 0 0 0 0 0 0 0 0 0 0 0 0 0 0 0 0 1 1 1 1 0 0 0 0 0 0 0 0 0 1 0 0 1 1 1 0 0 0 0 0
2 1 0 0 0 0 0 0 0 0 0 0 0 0 0 0 0 0 1 2 2 1 0 0 0 0 0 0 0 0 0 0 0 0 0 0 0 0 0 0 0 0 0
3 2 1 0 0 0 0 0 0 0 0 0 0 0 0 0 0 1 2 3 2 1 0 0 0 0 0 0 0 0 0 0 0 0 0 0 0 0 0 0 0 0 0
4 4 2 0 0 0 0 0 0 0 0 0 0 0 0 0 0 1 2 2 1 1 0 0 0 0 0 0 0 0 0 0 0 0 0 0 0 1 0 0 0 0 0
4 4 2 0 0 0 0 0 0 0 0 0 0 0 0 0 1 2 2 1 0 0 0 0 0 0 0 0 0 0 0 1 1 0 0 0 1 1 0 0 0 0 0
3 5 3 1 0 0 0 0 0 0 0 0 0 0 0 0 1 1 1 0 0 0 0 0 0 0 0 0 0 0 1 2 1 0 0 1 2 2 1 0 0 0 0
4 6 6 3 1 0 0 0 0 0 0 0 0 0 0 0 0 0 0 0 0 0 0 0 0 0 0 0 0 0 2 4 2 0 0 1 3 3 2 1 1 0 0
4 6 6 4 2 1 0 1 1 1 0 0 0 0 0 0 0 0 0 0 0 0 0 0 0 0 0 0 0 2 5 6 3 0 0 2 5 5 3 3 2 1 0
2 3 4 3 3 2 2 2 3 2 1 1 0 0 0 0 0 0 0 0 0 0 0 0 0 0 0 0 2 5 7 5 2 0 1 4 8 8 5 4 3 2 1
1 2 2 1 2 3 3 4 3 3 3 2 1 1 1 0 0 0 0 1 1 1 1 1 2 2 1 1 4 8 7 2 0 0 2 6 10 11 8 5 3 3 3
0 0 0 0 2 4 5 4 3 3 4 4 3 3 2 0 0 0 1 3 4 3 3 4 5 4 3 2 4 7 5 1 0 0 4 10 13 13 10 6 4 3 3
1 0 1 2 5 8 8 5 3 5 5 5 5 3 1 0 0 1 2 4 5 4 3 3 4 4 2 2 2 3 3 1 0 0 5 13 16 14 12 8 5 3 3
2 2 2 4 9 12 11 7 4 5 5 6 7 5 2 0 0 1 2 3 4 3 1 1 1 1 1 1 1 2 1 1 0 1 6 14 17 15 13 9 5 4 3
4 3 3 6 10 13 13 11 7 5 5 6 7 6 4 1 1 1 2 3 3 2 1 1 1 2 2 2 2 2 2 1 1 3 7 14 16 15 13 9 6 4 3
5 3 3 6 12 14 15 15 11 7 7 7 7 6 5 3 3 3 4 3 3 2 2 2 3 5 4 3 3 3 3 1 2 4 8 12 14 14 12 10 8 6 5
7 6 5 7 12 15 15 14 12 9 9 10 9 7 6 7 7 7 5 4 3 3 2 3 4 5 4 3 3 3 3 3 3 4 6 7 9 10 12 12 11 9 7
14 12 9 9 11 14 14 13 12 11 12 13 13 10 8 10 11 11 8 5 4 4 3 3 4 4 4 4 3 4 4 4 3 3 3 4 5 7 11 14 14 12 9
22 21 17 13 14 16 15 13 13 14 15 16 15 13 10 10 12 12 10 8 6 5 4 4 4 4 4 4 4 4 6 7 6 4 2 3 4 6 8 13 15 13 11
29 29 25 19 20 21 19 17 17 19 20 19 17 15 11 11 12 12 11 10 7 6 5 5 5 5 5 4 3 4 6 9 9 7 4 3 5 6 8 12 14 13 11
39 37 31 25 25 26 25 23 22 22 23 23 22 19 15 14 14 13 12 10 9 8 8 7 6 5 4 3 3 3 5 8 9 8 7 5 6 10 11 14 15 14 13
49 44 37 33 32 29 27 25 23 21 23 25 26 24 22 19 17 15 13 12 11 12 12 10 9 7 5 4 4 4 4 5 6 6 9 9 10 12 13 14 17 17 17
52 47 42 41 38 32 26 22 22 23 24 24 27 29 28 24 20 18 17 15 13 14 13 13 12 11 8 6 7 6 5 5 4 6 8 9 10 10 9 8 12 16 18
47 45 45 45 41 34 27 22 23 26 26 25 27 31 32 29 24 22 22 19 17 15 14 14 14 13 11 10 10 9 8 7 6 5 6 7 7 7 5 4 6 11 15
40 44 49 50 45 38 31 26 26 26 25 26 28 31 33 33 29 26 26 26 23 20 18 17 16 16 15 14 13 11 10 10 9 8 7 7 6 5 5 5 5 7 10
37 43 52 55 49 41 35 30 28 25 24 26 29 32 34 35 32 29 29 31 28 24 22 20 19 18 18 16 14 12 12 11 10 10 10 8 6 4 6 8 7 6 7

GEFSSE_con_prob3kmehi_222.txt.gz
EHI
4 5 8 10 9 8 7 6 6 5 4 4 3 3 3 3 3 3 3 4 5 6 7 5 4 4 4 5 5 4 4 4 5 6 5 5 5 6 6 4 1 2 4
4 6 9 10 9 8 7 6 6 6 5 4 3 3 3 3 3 3 3 3 4 5 5 4 3 4 5 5 6 5 4 4 5 5 4 4 4 5 4 3 2 2 4
4 6 9 10 10 9 7 6 6 6 5 4 3 3 3 3 3 4 3 3 3 4 3 3 3 3 4 6 6 5 4 4 4 4 3 2 2 3 3 3 3 3 4
4 6 9 11 12 10 8 6 6 5 4 4 4 3 3 3 4 4 4 3 3 3 3 3 3 3 4 4 4 4 4 4 4 3 1 0 1 2 3 3 3 4 4
4 5 8 12 12 10 8 7 7 5 4 4 3 3 3 4 5 4 4 3 3 3 3 3 3 3 3 3 3 4 4 3 2 1 0 0 1 3 4 4 3 3 4
3 4 7 11 12 10 8 8 8 6 4 3 3 3 3 4 5 4 4 4 3 3 3 3 3 3 3 3 4 4 4 2 1 0 0 0 1 5 7 6 4 3 3
3 3 6 9 11 9 8 7 8 7 5 4 3 3 3 4 5 4 4 4 4 3 3 3 3 3 3 4 4 4 3 2 0 0 0 0 1 5 8 8 6 4 3
4 4 6 8 9 8 6 6 6 7 7 5 4 4 4 4 5 4 3 4 4 4 3 3 3 3 4 5 5 3 2 1 0 0 0 1 2 5 8 9 8 5 4
6 6 6 7 7 6 5 4 4 6 7 6 5 5 5 5 4 3 3 3 4 3 3 3 3 4 5 6 5 4 3 2 1 0 0 1 4 7 8 9 8 6 4
7 7 6 6 6 6 5 4 4 5 6 6 5 5 4 4 3 3 3 4 4 5 5 5 6 7 7 7 6 4 3 3 1 0 1 3 7 9 10 10 7 5 5
7 7 6 6 6 5 5 5 5 5 4 4 4 4 3 3 3 3 4 6 7 7 8 8 10 10 9 6 5 4 3 1 0 0 1 4 8 10 11 10 8 5 5
6 6 6 6 5 4 4 5 4 4 3 3 3 3 3 3 3 3 5 7 8 8 8 8 9 8 5 3 2 2 1 0 0 0 2 5 8 9 10 10 9 7 7
4 4 5 6 5 4 3 4 3 3 3 3 4 3 3 3 3 3 3 5 6 6 5 4 4 3 2 0 0 0 0 0 0 0 2 6 7 7 8 9 11 10 9
4 4 5 6 6 4 3 3 3 3 3 4 4 4 3 3 3 2 1 2 3 2 1 1 1 1 0 0 1 1 1 1 0 0 2 5 6 6 6 8 12 13 12
6 5 6 7 6 4 3 3 3 3 3 3 4 4 3 3 2 1 0 1 2 1 1 1 0 0 1 1 2 2 2 2 1 0 1 3 6 7 8 9 12 13 12
8 7 7 6 5 4 4 4 4 3 3 3 4 4 4 3 2 1 1 2 2 2 2 2 1 1 2 3 3 3 3 3 2 1 0 2 5 8 10 12 13 12 11
6 7 6 5 5 5 5 5 4 2 3 3 3 4 5 4 3 3 3 3 3 3 3 3 3 3 3 3 3 3 3 3 3 2 1 0 2 5 10 13 14 12 12
5 6 7 6 5 5 4 4 3 1 2 4 4 4 5 6 5 5 4 3 3 2 2 2 2 3 3 3 3 3 3 3 3 2 1 0 0 2 5 11 13 12 11
8 8 8 7 5 4 2 2 1 0 2 4 5 5 6 7 6 5 3 2 1 1 1 2 1 2 3 3 3 3 3 3 3 2 1 0 0 0 2 6 9 10 9
14 13 10 8 5 2 1 0 0 1 2 4 6 7 7 7 7 5 3 1 1 1 2 2 2 1 2 3 3 3 3 3 2 2 1 0 0 0 0 2 3 5 6
17 15 12 9 5 2 0 0 0 1 2 3 5 8 8 7 7 6 4 3 3 3 3 3 3 2 1 2 3 3 2 1 1 1 0 0 0 0 0 0 0 1 2
19 18 15 11 7 3 1 1 2 2 2 1 3 6 7 7 7 7 6 5 4 4 3 3 3 3 2 3 3 3 2 1 1 1 0 0 0 0 0 0 0 0 1
23 22 19 14 11 8 6 5 5 5 3 1 2 4 6 6 8 8 7 6 5 5 4 3 3 3 3 3 3 3 3 2 2 2 1 1 0 0 0 0 0 0 0
26 25 22 19 17 14 12 11 9 7 5 3 3 5 6 8 9 9 9 9 8 7 6 5 4 4 3 3 3 3 3 3 3 3 3 2 1 0 0 0 0 0 0
31 30 28 24 21 18 16 14 12 9 6 4 5 8 9 9 9 10 11 11 11 11 9 6 5 5 4 4 4 4 4 4 4 4 4 3 1 0 0 0 0 0 0
36 37 34 27 22 18 16 15 13 10 7 5 8 11 11 9 9 9 11 12 12 12 9 7 5 6 6 5 5 5 5 5 5 5 5 3 2 1 0 0 0 0 0